Location: Lombard
(41.8800°N, 88.0080°W)
Time: 23:08:14
(UTC-05:00)

Transit 2A - Pass Details

Date: 10 February 2023
Orbit: 591 x 964 km, 66.7° (Epoch: 20 March)

Event Time Altitude Azimuth Distance (km) Brightness Sun altitude
Rises 23:29:06 0° 332° (NNW) 3,524 - -61.1°
Reaches altitude 10° 23:31:37 10° 337° (NNW) 2,620 - -61.2°
Maximum altitude 23:37:43 58° 56° (NE) 1,103 - -61.5°
Drops below altitude 10° 23:43:59 10° 135° (SE) 2,694 - -61.8°
Sets 23:46:35 0° 139° (SE) 3,630 - -61.9°
